Location: Molalla
(45.1473°N, 122.5770°W)
Time: 19:01:25
(UTC-07:00)

ISS - Visible Passes

Search period start: 22 October 2019 00:00
Search period end: 01 November 2019 00:00
Orbit: 411 x 421 km, 51.6° (Epoch: 23 October)

Date Brightness Start Highest point End Pass type
(mag) Time Alt. Az. Time Alt. Az. Time Alt. Az.
23 Oct -0.5 06:20:42 10° SSE 06:21:45 11° SE 06:22:48 10° ESE visible
24 Oct -2.6 07:06:14 10° SW 07:09:27 44° SE 07:12:41 10° ENE visible
25 Oct -1.8 06:18:05 10° SSW 06:21:00 27° SE 06:23:55 10° E visible
26 Oct -1.3 05:31:33 15° SSE 05:32:35 17° SE 05:34:52 10° E visible
26 Oct -3.8 07:05:36 10° WSW 07:08:58 78° NNW 07:12:21 10° ENE visible
27 Oct -3.5 06:18:28 23° SW 06:20:23 68° SSE 06:23:44 10° ENE visible
28 Oct -2.5 05:32:18 38° ESE 05:32:18 38° ESE 05:35:03 10° ENE visible
28 Oct -3.1 07:05:23 10° W 07:08:36 41° NNW 07:11:50 10° NE visible
29 Oct -0.2 04:46:00 11° E 04:46:00 11° E 04:46:12 10° E visible
29 Oct -3.6 06:18:54 37° W 06:19:55 56° NNW 06:23:15 10° NE visible
30 Oct -2.3 05:32:29 37° NE 05:32:29 37° NE 05:34:39 10° ENE visible
30 Oct -2.5 07:05:23 10° WNW 07:08:20 29° N 07:11:20 10° NE visible
31 Oct -0.1 04:45:59 10° ENE 04:45:59 10° ENE 04:46:00 10° ENE visible
31 Oct -2.8 06:18:53 30° NW 06:19:33 34° NNW 06:22:40 10° NE visible
